When you browse on this site, cookies collect data to enhance your experience and personalize the content and advertising you see.
Visit our Privacy Policy to learn more. By continuing to use the site, you agree to this use of cookies and data.
  • en France
  • Liste des pays
  • À 7 jours
  • Température de l'eau
  • Carte météo
  • Widgets météo
  • user-avatar
    Se connecter

    Météo par heure à Kalgoorlie

    Ce jour, 24 Août, Samedi

    Heure Température Précipitation Vent Pression Humidité
    00:00 +9°C° 0 mm 5 m/s 734 mmHg 63%
    01:00 +8°C° 0 mm 4 m/s 734 mmHg 67%
    02:00 +8°C° 0 mm 4 m/s 734 mmHg 73%
    03:00 +7°C° 0 mm 4 m/s 735 mmHg 77%
    04:00 +7°C° 0 mm 3 m/s 735 mmHg 82%
    05:00 +7°C° 0 mm 3 m/s 735 mmHg 87%
    06:00 +6°C° 0 mm 4 m/s 736 mmHg 86%
    07:00 +7°C° 0 mm 4 m/s 736 mmHg 84%
    08:00 +7°C° 0 mm 5 m/s 737 mmHg 80%
    09:00 +9°C° 0 mm 5 m/s 737 mmHg 71%
    10:00 +12°C° 0 mm 5 m/s 737 mmHg 62%
    11:00 +13°C° 0 mm 5 m/s 737 mmHg 53%
    12:00 +14°C° 0 mm 5 m/s 736 mmHg 48%
    13:00 +15°C° 0 mm 4 m/s 735 mmHg 44%
    14:00 +15°C° 0 mm 4 m/s 735 mmHg 40%
    15:00 +15°C° 0 mm 4 m/s 735 mmHg 40%
    16:00 +15°C° 0 mm 4 m/s 735 mmHg 39%
    17:00 +15°C° 0 mm 4 m/s 736 mmHg 39%
    18:00 +14°C° 0 mm 3 m/s 736 mmHg 41%
    19:00 +13°C° 0 mm 3 m/s 736 mmHg 44%
    20:00 +12°C° 0 mm 3 m/s 736 mmHg 46%
    21:00 +11°C° 0 mm 3 m/s 737 mmHg 50%
    22:00 +11°C° 0 mm 4 m/s 737 mmHg 54%
    23:00 +10°C° 0 mm 4 m/s 737 mmHg 59%

    Demain, 25 Août, Dimanche

    Heure Température Précipitation Vent Pression Humidité
    00:00 +9°C° 0 mm 5 m/s 737 mmHg 64%
    01:00 +8°C° 0 mm 5 m/s 736 mmHg 69%
    02:00 +7°C° 0 mm 5 m/s 736 mmHg 74%
    03:00 +7°C° 0 mm 5 m/s 736 mmHg 79%
    04:00 +7°C° 0 mm 5 m/s 736 mmHg 83%
    05:00 +5°C° 0 mm 6 m/s 736 mmHg 87%
    06:00 +7°C° 0 mm 6 m/s 736 mmHg 83%
    07:00 +7°C° 0 mm 6 m/s 737 mmHg 79%
    08:00 +8°C° 0 mm 7 m/s 737 mmHg 75%
    09:00 +10°C° 0 mm 6 m/s 737 mmHg 66%
    10:00 +11°C° 0 mm 6 m/s 737 mmHg 57%
    11:00 +14°C° 0 mm 6 m/s 737 mmHg 48%
    12:00 +15°C° 0 mm 6 m/s 736 mmHg 44%
    13:00 +15°C° 0 mm 5 m/s 735 mmHg 41%
    14:00 +16°C° 0 mm 5 m/s 734 mmHg 37%
    15:00 +16°C° 0 mm 5 m/s 735 mmHg 38%
    16:00 +16°C° 0 mm 5 m/s 735 mmHg 38%
    17:00 +15°C° 0 mm 4 m/s 735 mmHg 38%
    18:00 +15°C° 0 mm 4 m/s 735 mmHg 41%
    19:00 +14°C° 0 mm 4 m/s 735 mmHg 43%
    20:00 +13°C° 0 mm 4 m/s 736 mmHg 46%
    21:00 +12°C° 0 mm 5 m/s 736 mmHg 47%
    22:00 +12°C° 0 mm 5 m/s 736 mmHg 48%
    23:00 +10°C° 0 mm 5 m/s 736 mmHg 49%

    Après-demain, 26 Août, Lundi

    Heure Température Précipitation Vent Pression Humidité
    00:00 +9°C° 0 mm 5 m/s 736 mmHg 53%
    01:00 +9°C° 0 mm 5 m/s 735 mmHg 58%
    02:00 +8°C° 0 mm 4 m/s 735 mmHg 62%
    03:00 +8°C° 0 mm 4 m/s 736 mmHg 65%
    04:00 +7°C° 0 mm 4 m/s 736 mmHg 69%
    05:00 +7°C° 0 mm 4 m/s 736 mmHg 72%
    06:00 +8°C° 0 mm 4 m/s 736 mmHg 68%
    07:00 +8°C° 0 mm 5 m/s 736 mmHg 65%
    08:00 +9°C° 0 mm 5 m/s 737 mmHg 62%
    09:00 +10°C° 0 mm 5 m/s 737 mmHg 55%
    10:00 +13°C° 0 mm 5 m/s 737 mmHg 49%
    11:00 +14°C° 0 mm 5 m/s 737 mmHg 43%
    12:00 +15°C° 0 mm 5 m/s 736 mmHg 40%
    13:00 +17°C° 0 mm 4 m/s 735 mmHg 37%
    14:00 +17°C° 0 mm 4 m/s 734 mmHg 34%
    15:00 +17°C° 0 mm 4 m/s 735 mmHg 35%
    16:00 +17°C° 0 mm 4 m/s 735 mmHg 35%
    17:00 +17°C° 0 mm 4 m/s 735 mmHg 35%
    18:00 +15°C° 0 mm 4 m/s 735 mmHg 37%
    19:00 +14°C° 0 mm 4 m/s 735 mmHg 40%
    20:00 +13°C° 0 mm 4 m/s 736 mmHg 42%
    21:00 +12°C° 0 mm 4 m/s 736 mmHg 44%
    22:00 +11°C° 0 mm 4 m/s 736 mmHg 45%
    23:00 +11°C° 0 mm 4 m/s 736 mmHg 47%

    27 Août, Mardi

    Heure Température Précipitation Vent Pression Humidité
    00:00 +10°C° 0 mm 4 m/s 736 mmHg 48%
    01:00 +10°C° 0 mm 4 m/s 736 mmHg 49%
    02:00 +8°C° 0 mm 4 m/s 735 mmHg 49%
    03:00 +8°C° 0 mm 4 m/s 735 mmHg 51%
    04:00 +7°C° 0 mm 4 m/s 735 mmHg 52%
    05:00 +7°C° 0 mm 4 m/s 735 mmHg 54%
    06:00 +8°C° 0 mm 5 m/s 736 mmHg 52%
    07:00 +9°C° 0 mm 5 m/s 736 mmHg 50%
    08:00 +10°C° 0 mm 5 m/s 736 mmHg 48%
    09:00 +11°C° 0 mm 6 m/s 736 mmHg 43%
    10:00 +14°C° 0 mm 7 m/s 736 mmHg 38%
    11:00 +16°C° 0 mm 7 m/s 736 mmHg 34%
    12:00 +17°C° 0 mm 7 m/s 735 mmHg 30%
    13:00 +19°C° 0 mm 6 m/s 734 mmHg 27%
    14:00 +20°C° 0 mm 6 m/s 734 mmHg 23%
    15:00 +20°C° 0 mm 5 m/s 733 mmHg 25%
    16:00 +20°C° 0 mm 4 m/s 733 mmHg 26%
    17:00 +19°C° 0 mm 3 m/s 733 mmHg 27%
    18:00 +18°C° 0 mm 4 m/s 733 mmHg 29%
    19:00 +17°C° 0 mm 4 m/s 734 mmHg 31%
    20:00 +14°C° 0 mm 4 m/s 734 mmHg 34%
    21:00 +14°C° 0 mm 5 m/s 734 mmHg 34%
    22:00 +14°C° 0 mm 5 m/s 733 mmHg 34%
    23:00 +13°C° 0 mm 5 m/s 733 mmHg 34%

    28 Août, Mercredi

    Heure Température Précipitation Vent Pression Humidité
    00:00 +13°C° 0 mm 5 m/s 733 mmHg 35%
    01:00 +12°C° 0 mm 5 m/s 733 mmHg 36%
    02:00 +12°C° 0 mm 5 m/s 733 mmHg 37%
    03:00 +12°C° 0 mm 5 m/s 733 mmHg 37%
    04:00 +10°C° 0 mm 5 m/s 732 mmHg 38%
    05:00 +10°C° 0 mm 5 m/s 732 mmHg 39%
    06:00 +12°C° 0 mm 5 m/s 732 mmHg 38%
    07:00 +13°C° 0 mm 6 m/s 733 mmHg 37%
    08:00 +14°C° 0 mm 6 m/s 733 mmHg 36%
    09:00 +16°C° 0 mm 6 m/s 733 mmHg 33%
    10:00 +20°C° 0 mm 7 m/s 732 mmHg 30%
    11:00 +23°C° 0 mm 7 m/s 732 mmHg 27%
    12:00 +24°C° 0 mm 7 m/s 731 mmHg 24%
    13:00 +27°C° 0 mm 6 m/s 731 mmHg 22%
    14:00 +28°C° 0 mm 6 m/s 730 mmHg 20%
    15:00 +28°C° 0 mm 5 m/s 730 mmHg 22%
    16:00 +27°C° 0 mm 3 m/s 730 mmHg 24%
    17:00 +26°C° 0 mm 2 m/s 729 mmHg 26%
    18:00 +25°C° 0 mm 3 m/s 729 mmHg 27%
    19:00 +22°C° 0 mm 4 m/s 730 mmHg 28%
    20:00 +21°C° 0 mm 5 m/s 730 mmHg 29%
    21:00 +20°C° 0 mm 5 m/s 730 mmHg 31%
    22:00 +20°C° 0 mm 5 m/s 729 mmHg 32%
    23:00 +19°C° 0 mm 6 m/s 729 mmHg 34%

    29 Août, Jeudi

    Heure Température Précipitation Vent Pression Humidité
    00:00 +17°C° 0 mm 5 m/s 729 mmHg 34%
    01:00 +17°C° 0 mm 5 m/s 729 mmHg 35%
    02:00 +17°C° 0 mm 4 m/s 728 mmHg 35%
    03:00 +17°C° 0 mm 4 m/s 728 mmHg 37%
    04:00 +16°C° 0 mm 3 m/s 728 mmHg 39%
    05:00 +16°C° 0 mm 3 m/s 728 mmHg 41%
    06:00 +17°C° 0 mm 3 m/s 728 mmHg 40%
    07:00 +18°C° 0 mm 4 m/s 729 mmHg 39%
    08:00 +19°C° 0 mm 4 m/s 729 mmHg 38%
    09:00 +22°C° 0 mm 6 m/s 729 mmHg 33%
    10:00 +26°C° 0 mm 8 m/s 728 mmHg 29%
    11:00 +28°C° 0 mm 10 m/s 728 mmHg 24%
    12:00 +29°C° 0 mm 11 m/s 728 mmHg 24%
    13:00 +29°C° 0 mm 11 m/s 727 mmHg 24%
    14:00 +29°C° 0 mm 12 m/s 726 mmHg 24%
    15:00 +28°C° 0 mm 11 m/s 726 mmHg 27%
    16:00 +28°C° 0 mm 9 m/s 726 mmHg 29%
    17:00 +27°C° 0 mm 8 m/s 726 mmHg 31%
    18:00 +24°C° 0 mm 8 m/s 726 mmHg 39%
    19:00 +22°C° 0 mm 7 m/s 727 mmHg 46%
    20:00 +21°C° 0 mm 6 m/s 727 mmHg 54%
    21:00 +20°C° 0 mm 6 m/s 727 mmHg 55%
    22:00 +19°C° 0 mm 5 m/s 727 mmHg 57%
    23:00 +18°C° 0 mm 4 m/s 726 mmHg 59%
    Voir plus